QUETZSAT 1

Last updated on Sat Sep 12 2026 00:03:01 GMT+0000 (Coordinated Universal Time)

1 37826U 11054A 26254.49495870 -.00000259 00000+0 00000+0 0 9997 2 37826 0.0459 295.2103 0002533 248.2178 268.2743 1.00272111 50735
UTC large
Height (km)
Speed (km/s)
/
Latitude / Longitude
Inclination (degrees)
Orbital Period (minutes)
Azimuth
Elevation
Range (km)
Doppler Factor

Next 0 passes for location: London (51.5072 / 0.1276)

No passes found over London.
QUETZSAT 1